LGKV

Details ICAO LGKV (KVA)
Name Kavala Megas Alexandros
Region Greece
Timezone Europe/Athens (UTC+3.0)
Plans Departing 59
Arriving 58
Stats Elevation 18 ft / 5 m (AMSL)
Location 40.914780° 24.618932°
Runways 2
Magnetic Variation 4.938° E
Sunrise 2018-05-24 02:58:09 UTC / 2018-05-24 05:58:09 Local
Sunset 2018-05-24 17:41:26 UTC / 2018-05-24 20:41:26 Local
Advertisement - Login to hide

Runways

ID Width Length Bearing (true) Bearing (mag) Surface Threshold Offset Overrun Length
05L 100 ft / 30 m 9,833 ft / 2,997 m 55.25° 50.31° Asphalt 0 ft / 0 m 930 ft / 283 m
05R 150 ft / 46 m 9,833 ft / 2,997 m 55.25° 50.31° Asphalt 0 ft / 0 m 930 ft / 283 m
23L 150 ft / 46 m 9,833 ft / 2,997 m 235.27° 230.33° Asphalt 0 ft / 0 m 930 ft / 283 m
23R 100 ft / 30 m 9,833 ft / 2,997 m 235.27° 230.33° Asphalt 0 ft / 0 m 930 ft / 283 m

Map

Weather


0- 5 10 15 20 25 30 35+ Temperature / ° C

Clouds and Precipitation
Forecast for 2018-05-24 18:00 UTC. Updated 3 hours ago

Ground ~20,000 ft ~40,000 ft Winds

METAR

LGKV 241950Z 00000KT 9999 FEW020 SCT035 22/18 Q1012

TAF

Not found

Frequencies

Tower 118.40 MHz MEGAS ALEXANDROS TWR
Warning: Do not use this data for real-world aviation or navigation. No guarantee of current accuracy is given.